Torna al catalogo

STARLINK-38221

AttivoComunicazioniSSO
NORAD 100248·PAYLOAD·🇺🇸 United States

Lanciato Aug 8, 2026 da Vandenberg Space Force Base

Loading…

Prossimi Passaggi (prossime 24 ore)

TLE

AggiornatoSource: Space-Track

Epoca: Sep 14, 2026, 15:21 UTC

1 A0248U 26181C   26257.63967349  .00168520  00000-0  11103-2 0  9991
2 A0248  97.2822 300.8800 0000829  90.1908 269.9453 15.75153018  6988

Traccia STARLINK-38221 in tempo reale con AllMySat

Download on the App Store